This is the latest recevied weather packets stored in our database for station/object N1UNH. If no packets are shown the sender has not sent any weather packets the latest 1 day(s).
| Time | Temp. | Humidity | Pressure | Rain* | Wind** | Luminosity | Snow |
|---|---|---|---|---|---|---|---|
| 1778021159 | 23.89° C | 40% | 1010.7 hPa | 0 mm | 0.45 m/s, 204° | 12 W/m² | - |
| 1778020857 | 23.89° C | 42% | 1010.6 hPa | 0 mm | 1.34 m/s, 204° | 25 W/m² | - |
| 1778020554 | 25° C | 40% | 1010.7 hPa | 0 mm | 0.45 m/s, 204° | 40 W/m² | - |
| 1778020250 | 25.56° C | 37% | 1010.6 hPa | 0 mm | 0 m/s | 48 W/m² | - |
| 1778019946 | 26.11° C | 36% | 1010.4 hPa | 0 mm | 0 m/s | 43 W/m² | - |
| 1778019642 | 26.11° C | 35% | 1010.4 hPa | 0 mm | 0.89 m/s, 204° | 35 W/m² | - |
| 1778019340 | 26.11° C | 35% | 1010.1 hPa | 0 mm | 0.45 m/s, 204° | 37 W/m² | - |
| 1778019036 | 26.11° C | 35% | 1010.1 hPa | 0 mm | 0.45 m/s, 204° | 34 W/m² | - |
| 1778018733 | 26.11° C | 34% | 1009.9 hPa | 0 mm | 1.34 m/s, 204° | 39 W/m² | - |
| 1778018431 | 26.67° C | 34% | 1010.1 hPa | 0 mm | 1.79 m/s, 204° | 65 W/m² | - |
| 1778018129 | 26.67° C | 33% | 1009.8 hPa | 0 mm | 0.45 m/s, 204° | 106 W/m² | - |
| 1778017827 | 26.67° C | 33% | 1009.5 hPa | 0 mm | 0.89 m/s, 204° | 106 W/m² | - |
| 1778017524 | 27.22° C | 33% | 1009.4 hPa | 0 mm | 1.79 m/s, 204° | 115 W/m² | - |
| 1778017221 | 27.22° C | 32% | 1009.5 hPa | 0 mm | 0.45 m/s, 204° | 187 W/m² | - |
| 1778016919 | 27.78° C | 32% | 1009.1 hPa | 0 mm | 2.68 m/s, 204° | 191 W/m² | - |
| 1778016615 | 27.78° C | 31% | 1009.4 hPa | 0 mm | 0.89 m/s, 204° | 218 W/m² | - |
| 1778016311 | 27.78° C | 31% | 1009.3 hPa | 0 mm | 1.79 m/s, 204° | 246 W/m² | - |
| 1778016009 | 27.78° C | 31% | 1009.1 hPa | 0 mm | 0.45 m/s, 204° | 174 W/m² | - |
| 1778015706 | 27.78° C | 31% | 1009.4 hPa | 0 mm | 1.79 m/s, 204° | 308 W/m² | - |
| 1778015402 | 27.78° C | 32% | 1008.8 hPa | 0 mm | 0.45 m/s, 204° | 267 W/m² | - |
| 1778015099 | 27.78° C | 31% | 1009.1 hPa | 0 mm | 0.89 m/s, 204° | 251 W/m² | - |
| 1778014796 | 27.78° C | 31% | 1008.9 hPa | 0 mm | 1.79 m/s, 204° | 289 W/m² | - |
| 1778014494 | 27.78° C | 31% | 1009 hPa | 0 mm | 0.89 m/s, 204° | 270 W/m² | - |
| 1778014191 | 27.78° C | 30% | 1008.9 hPa | 0 mm | 1.79 m/s, 204° | 172 W/m² | - |
| 1778013889 | 27.78° C | 30% | 1009.1 hPa | 0 mm | 0.89 m/s, 204° | 281 W/m² | - |
* Rain latest hour (hover to see other rain measurements)
** Current wind speed in m/s (hover to see current wind gust speed)